Hourly Data Report for October 30, 2014

All times are specified in Local Standard Time (LST). Add 1 hour to adjust for Daylight Saving Time where and when it is observed.

ST LEONARD CS
NEW BRUNSWICK

47°09'28.050" N
67°49'55.014" W
245.00 m
810I001
71019
WIY

Download Data

Hourly Data (October 2014)
Hourly Data Report for October 30, 2014
Temp Definition
°C
Dew Point Temp Definition
°C
Rel Hum Definition
%
Wind Dir Definition
10's deg

Wind Spd Definition
km/h
Visibility Definition
km
Stn Press Definition
kPa
Hmdx Definition


Wind Chill Definition


Weather Definition


TIME
00:00 7.6 6.2 91 24 2   97.55     LegendNANA
01:00 6.0 4.7 92 0 1   97.55     LegendNANA
02:00 5.2 3.8 91 25 2   97.58     LegendNANA
03:00 4.8 3.4 91 24 1   97.58     LegendNANA
04:00 3.6 3.0 96 36 1   97.61     LegendNANA
05:00 3.4 3.0 97   0   97.65     LegendNANA
06:00 2.6 2.3 99 5 LegendMM   97.72     LegendNANA
07:00 3.5 2.8 95 0 1   97.80     LegendNANA
08:00 3.7 2.7 94 29 2   97.89     LegendNANA
09:00 5.3 2.5 82 29 3   97.95     LegendNANA
10:00 6.1 1.7 74 30 6   98.00     LegendNANA
11:00 7.0 0.9 66 31 7   98.01     LegendNANA
12:00 7.9 0.9 61 32 7   98.02     LegendNANA
13:00 8.0 0.2 58 30 4   97.99     LegendNANA
14:00 7.8 -0.5 56 32 6   98.01     LegendNANA
15:00 7.6 0.2 59 31 4   98.03     LegendNANA
16:00 7.0 -1.0 57 32 6   98.11     LegendNANA
17:00 5.8 -1.7 59 31 3   98.19     LegendNANA
18:00 4.8 -1.9 62 32 1   98.25     LegendNANA
19:00 4.0 -1.2 69 30 1   98.32     LegendNANA
20:00 4.2 -1.4 67 31 2   98.35     LegendNANA
21:00 3.9 -1.4 69 0 1   98.37     LegendNANA
22:00 3.6 -1.1 71 0 1   98.42     LegendNANA
23:00 3.4 -2.7 65 32 3   98.41     LegendNANA

Notes on Data Quality.

Legend

  • E = Estimated
  • M = Missing
  • NA = Not Available
  • ‡ = Partner data that is not subject to review by the National Climate Archives
Date modified: